English version (google)  Retour à l'accueil Ecrire à l'auteur du site Runraid : Michel Jourdan


 Visitez La Boutique 



Les prochaines courses


Les derniers résultats

cliquez pour visualiser la page complète relatant la chronologie des éruptions du Piton de la Fournaise
éruptions Piton de la Fournaise


Ile de La Réunion

 Diagonale des Fous 

Ecrire au créateur du site : Michel Jourdan
Contact


2016-07-17 - Mad'Trail Le col de la Madeleine - 62km

Pour consulter le palmarès d'un coureur, un clic sur son nom !

Vous avez des remarques, corrections, ... sur ces résultats , un clic sur --> pour me transmettre toute information concernant les classements


Mad'Trail Le col de la Madeleine - 62km - 2016 : classement des 116 finishers
Place Nom Temps Cat. Club Sexe Clt/cat.
Place Nom Temps Cat. Club Sexe Clt/cat.
1 Collet Aurelien 07:05:14 M35 Domont Athletisme M 0
2 Gallois Arnaud 08:13:46 MU23 M 0
3 Claude Stephane 08:22:31 M35 M 0
4 Boulon Sebastien 08:31:16 M23 Generation Trail Blois M 0
5 Goyer Julien 08:39:50 M35 M 0
6 Bizeul Charly 09:07:43 M23 Flers Conde Sur Noirea... M 0
7 Moncanut Baptiste 09:08:55 M40 Generation Trail Blois M 0
8 Girard Norbert 09:12:55 M50 M 0
9 Caro Alexandre 09:13:01 M35 Lison Sport Nature M 0
10 Forge Mickael 09:21:46 M40 Evreux AC M 0
11 Alarcon Francois 09:21:47 M50 M 0
12 Huguet Benoit 09:41:45 M23 M 0
13 Douffi Abdel 09:44:04 M23 S/L Asptt Lille Metropole M 0
14 Le Gallou Ronan 09:44:04 MU23 M 0
15 Gourmelon Xavier 09:45:49 M45 M 0
16 Bourriez David 09:45:49 M40 M 0
17 Prezeau Christophe 09:48:23 M 0
18 Le Masson Gildas 09:48:39 M50 M 0
19 Phai Laurie 09:48:40 SEF F 1ere F 0
20 Kirn Philippe 09:50:27 M40 M 0
21 Schaeffer Jerome 09:52:10 M40 M 0
22 Bonnard Emmanuel 09:52:10 M45 M 0
23 Appertet Christophe 09:53:13 M35 M 0
24 Verscheure Elodie 10:07:58 W23 S/L Asptt Lille Metropole F 2 F 0
25 Bellot Champignon Nicolas 10:13:27 M35 M 0
26 Martinez Gregory 10:18:30 M23 M 0
27 Borrel Benoit 10:18:59 M23 M 0
28 Leprince Elodie 10:22:00 W23 F 3 F 0
29 Gasiglia Yoann 10:23:26 MU23 M 0
30 Leblond Clement 10:23:26 MU23 Asptt Compiegne M 0
31 Dodin Benoit 10:24:21 M35 Athletic Brunoy Club M 0
32 Dassonneville Matthieu 10:33:38 M35 M 0
33 Segond Dominique 10:34:41 M50 Saone Mont D`Or Nature M 0
34 Gagnepain Victorien 10:34:42 M23 M 0
35 Dumur Philippe 10:40:03 M35 M 0
36 de Guio Benoit 10:40:15 M23 M 0
37 Goujon Emmanuel 10:44:21 M35 M 0
38 Renard Fabrice 10:44:32 M40 Generation Trail Blois M 0
39 Pers Olivier 10:44:37 M35 M 0
40 Galamand Eric 10:45:21 M45 S/L la Foulee D`Annemasse M 0
41 Rodrigues Esrrael 10:46:12 M35 M 0
42 Ory Stephane 10:46:17 M45 M 0
43 Faron Anthony 10:46:44 M40 Evreux AC M 0
44 Laurent Lionel 10:46:48 M35 M 0
45 Falconnier Jeremy 10:49:53 M23 M 0
46 Marie Christophe 10:50:40 M23 M 0
47 Lambert Olivier 10:51:50 M45 M 0
48 Bonamy Cyrille 10:54:49 M35 M 0
49 Randoin Thibault 10:56:57 M23 M 0
50 Golega Marc 11:00:04 M23 M 0
51 Hermeloup Geraud 11:02:13 M40 M 0
52 Loridan Ludovic 11:05:56 M35 M 0
53 Hotin Jerome 11:06:46 M40 M 0
54 Patte Nicolas 11:07:41 M23 Beauvais Triathlon M 0
55 Desbrest Romain 11:13:25 M23 M 0
56 Tharaud Julie 11:13:25 W23 F 4 F 0
57 Capus Berard Isabelle 11:28:01 W55 F 5 F 0
58 Blain Remy 11:41:07 M45 M 0
59 Iffly Sebastien 11:45:09 M35 M 0
60 Rohart Ludwig 11:45:40 M23 M 0
61 Pie Jean Claude 11:50:08 M45 Asptt Toulon La Valette M 0
62 Raynaud Cedric 11:51:54 M40 M 0
63 Muthig Enkle Valerie 11:52:05 W40 Athletisme Metz Metropole F 6 F 0
64 Baile Sylvie 11:54:18 W45 F 7 F 0
65 Cloppet Jean Pierre 11:55:05 M 0
66 Derrien Lionel 12:02:38 M23 M 0
67 Salino Delphine 12:12:27 W40 F 8 F 0
68 Martin Herve 12:12:28 M 0
69 Pedro Philippe 12:13:28 M50 M 0
70 Correard Christophe 12:13:28 M35 M 0
71 Chanvillard Thomas 12:15:25 M23 M 0
72 Trouve Buisson Thibaut 12:15:25 M23 M 0
73 Georger Olivier 12:15:51 M40 M 0
74 Massignan Remi 12:17:10 M40 M 0
75 Guerriero Arnaud 12:17:47 MU23 M 0
76 Desgrouas Sylvain 12:25:50 M45 Evreux AC M 0
77 Serra Lionel 12:27:06 M23 M 0
78 Cordroch Matthieu 12:27:08 M23 M 0
79 Esther Nicolas 12:27:08 M23 M 0
80 Beaufils Laurent 12:28:33 M45 S/L la Foulee D`Annemasse M 0
81 Mercier Jean Michel 12:28:34 M45 S/L la Foulee D`Annemasse M 0
82 Peneloux Christine 12:28:47 W45 US Ezanville Ecouen F 9 F 0
83 Gibier Daniel 12:28:49 M45 M 0
84 Godart Fabien 12:39:46 M35 M 0
85 Loriferne Antoine 12:55:15 M23 M 0
86 Rossigneux Xavier 12:57:33 M35 M 0
87 Boisbrun Quentin 12:59:33 M23 Courbevoie Athletisme ... M 0
88 Toupance Laurent 13:03:20 M40 M 0
89 Toupance Jean Baptiste 13:03:20 M35 M 0
90 Franzi Dimitri 13:06:38 M23 S/L CCA Rouffach M 0
91 Maillard Xavier 13:14:35 M35 M 0
92 Clairouin Francois 13:14:35 M35 M 0
93 Caillere Olivier 13:21:08 M23 M 0
94 Gehannin David 13:22:15 M40 XVE Athletic Club M 0
95 Laurent Philippe 13:25:11 M50 Foulees De St Germain ... M 0
96 Gros Jean Louis 13:25:37 M50 M 0
97 Karl (Huot) Catherine 13:28:42 W40 F 10 F 0
98 Soudan Catherine 13:28:42 W50 F 10 F 0
99 Guy Alexandre 13:28:47 M40 M 0
100 Eickmayer Thomas 13:36:21 M40 M 0
101 Champion Nicolas 13:41:25 M 0
102 Ruet Bastien 13:41:25 M23 M 0
103 Cottrez Jerome 13:52:31 M40 M 0
104 Bocquery Vincent 14:01:19 M45 M 0
105 Mercier Xavier 14:01:19 M40 M 0
106 Salmon Arnaud 14:03:11 M40 M 0
107 Richard Stephane 14:04:26 M45 Cevennes Trail Club M 0
108 Mamet Kevin 14:06:47 M23 M 0
109 Pasteur Fanny 14:13:28 W23 F 12 F 0
110 Nolin Victor 14:13:29 M23 M 0
111 Arnoux Cyril 14:13:31 M40 M 0
112 Schilling Philippe 14:30:27 M50 M 0
113 Antoine Bernard 14:33:00 M45 US Ezanville Ecouen M 0
114 Mendoza Gilles 14:33:01 M55 Athletisme Metz Metropole M 0
115 Traver Luc 15:02:59 M55 M 0
116 Gauthier Pierre 15:21:56 M55 Athletisme Metz Metropole M 0


ReferencementCe site est listé dans la catégorie Sport : Sports extrêmes Dictionnaire
| Accueil | La Réunion  Vue du ciel | Météo | Cyclones | Volcan | Cirques de Mafate , Cilaos , Salazie | Photos Randonnées | Randonnées Réunion: Randos Espiègle , Courses montagne | Diagonale des Fous |  Marathon des Sables | Voyages Les stats du site | Fonds écran | Plan du site | Blog de runraid | Galerie photos Sport Réunion |